Language: 


Des rapports , des résumés tant et plus, au choix de chacun....


Données statistiques de la station
Quotidien Rapport Janvier 3, 2018 Unités:  Métrique    Anglais   les deux
« Précédent Jour
Suivant Jour »
Quotidien Hebdomadaire Mensuel Annuel Actuel
  Haut: Bas: Moyen:
Température: -17.8 °C -13.4 °C -12.3 °C
Pt de rosée: -17.8 °C -16.1 °C -14.3 °C
Humidité: Humidity % 63 % 77 %
Vitesse du vent: 0 km/h 17.9 km/h 49.2 km/h
Rafales: 0 km/h - -
Vent:- - WSW
Pression: 0 hPa 33453.7 hPa -
Précipitation: 238.76 mm    
Historical Graphs
 
 
Données statistiques pour Janvier 3, 2018
Heure Température Point de rosée Pression Vent Vitesse du vent Refales Humidité Pluie (taux horaire)
-17.8 °C -17.8 °C 0 hPa Calm     Humidity % 0 mm
00:03 -11.8 °C -12.2 °C 33731.3 hPa South 19.2 km/h 28.5 km/h 97 % 0 mm
00:04 -11.8 °C -12.2 °C 33731.3 hPa South 22 km/h 28.5 km/h 97 % 0 mm
00:09 -11.7 °C -11.7 °C 33731.3 hPa WSW 22.5 km/h 38.3 km/h 97 % 0 mm
00:14 -11.7 °C -11.7 °C 33751.6 hPa SSW 22 km/h 39.9 km/h 97 % 0 mm
00:19 -11.6 °C -11.7 °C 33751.6 hPa SSW 19.2 km/h 39.9 km/h 97 % 0 mm
00:20 -11.6 °C -11.7 °C 33751.6 hPa WSW 22 km/h 39.9 km/h 97 % 0 mm
00:25 -11.6 °C -11.7 °C 33751.6 hPa SW 38.3 km/h 50.5 km/h 97 % 0 mm
00:28 -11.6 °C -11.7 °C 33694.1 hPa SW 27.2 km/h 50.5 km/h 97 % 0 mm
00:33 -11.6 °C -11.7 °C 33694.1 hPa SSW 17.9 km/h 38.3 km/h 97 % 0 mm
00:34 -11.6 °C -11.7 °C 33694.1 hPa SW 27.7 km/h 38.3 km/h 97 % 0 mm
00:40 -11.7 °C -11.7 °C 33694.1 hPa SSW 25.4 km/h 39.9 km/h 98 % 20.32 mm
00:41 -11.7 °C -11.7 °C 33694.1 hPa SW 22.5 km/h 39.9 km/h 98 % 25.4 mm
00:42 -11.7 °C -11.7 °C 33694.1 hPa SW 44.6 km/h 44.6 km/h 98 % 25.4 mm
00:47 -11.7 °C -11.7 °C 33694.1 hPa SW 27.2 km/h 44.6 km/h 98 % 33.02 mm
00:48 -11.7 °C -11.7 °C 33694.1 hPa SSW 31.9 km/h 44.6 km/h 98 % 33.02 mm
00:53 -11.7 °C -11.7 °C 33694.1 hPa SW 31.9 km/h 39.9 km/h 98 % 38.1 mm
00:55 -11.7 °C -11.7 °C 33694.1 hPa SSW 37 km/h 52.8 km/h 98 % 38.1 mm
01:01 -11.7 °C -11.7 °C 33694.1 hPa SSW 22.5 km/h 52.8 km/h 98 % 45.72 mm
01:04 -11.7 °C -11.7 °C 33694.1 hPa SSW 26.7 km/h 52.8 km/h 98 % 58.42 mm
01:09 -11.7 °C -11.7 °C 33694.1 hPa SSW 33.2 km/h 41.2 km/h 98 % 63.5 mm
01:10 -11.7 °C -11.7 °C 33694.1 hPa WSW 24.3 km/h 41.2 km/h 98 % 63.5 mm
01:12 -11.7 °C -11.7 °C 33660.2 hPa SSW 23 km/h 41.2 km/h 98 % 63.5 mm
01:17 -11.7 °C -11.7 °C 33660.2 hPa SW 32.3 km/h 41.2 km/h 98 % 71.12 mm
01:21 -11.7 °C -11.7 °C 33660.2 hPa SSW 39.9 km/h 60.3 km/h 98 % 71.12 mm
01:26 -11.7 °C -11.7 °C 33626.4 hPa SSW 22.5 km/h 60.3 km/h 98 % 71.12 mm
01:31 -11.6 °C -11.7 °C 33626.4 hPa SSW 19.6 km/h 51.5 km/h 98 % 76.2 mm
01:36 -11.6 °C -11.7 °C 33626.4 hPa SSW 25.4 km/h 49.7 km/h 98 % 83.82 mm
01:39 -11.6 °C -11.7 °C 33626.4 hPa SSW 40.7 km/h 57.9 km/h 98 % 76.2 mm
01:42 -11.5 °C -11.7 °C 33592.5 hPa SW 30.7 km/h 57.9 km/h 98 % 71.12 mm
01:46 -11.5 °C -11.7 °C 33592.5 hPa WSW 45.1 km/h 57.9 km/h 98 % 71.12 mm
01:51 -11.4 °C -11.7 °C 33592.5 hPa SW 53.3 km/h 62 km/h 98 % 63.5 mm
01:53 -11.4 °C -11.7 °C 33592.5 hPa WSW 45.1 km/h 62 km/h 98 % 63.5 mm
01:58 -11.4 °C -11.1 °C 33558.6 hPa SSW 44.6 km/h 60.3 km/h 98 % 58.42 mm
02:00 -11.3 °C -11.1 °C 33558.6 hPa SW 33.2 km/h 60.3 km/h 98 % 58.42 mm
02:05 -11.3 °C -11.1 °C 33558.6 hPa WSW 26.2 km/h 63.7 km/h 98 % 45.72 mm
02:06 -11.3 °C -11.1 °C 33558.6 hPa WSW 39.4 km/h 63.7 km/h 98 % 38.1 mm
02:13 -11.3 °C -11.1 °C 33558.6 hPa SSW 48.1 km/h 63.7 km/h 98 % 38.1 mm
02:14 -11.2 °C -11.1 °C 33558.6 hPa SSW 41.2 km/h 59.1 km/h 98 % 38.1 mm
02:20 -11.2 °C -11.1 °C 33558.6 hPa SW 67.1 km/h 67.1 km/h 98 % 38.1 mm
02:22 -11.1 °C -11.1 °C 33558.6 hPa WSW 45.1 km/h 67.1 km/h 98 % 38.1 mm
02:27 -11.1 °C -11.1 °C 33524.8 hPa SW 45.9 km/h 67.1 km/h 98 % 33.02 mm
02:28 -11.1 °C -11.1 °C 33524.8 hPa WSW 40.7 km/h 67.1 km/h 98 % 33.02 mm
02:29 -11.1 °C -11.1 °C 33524.8 hPa WSW 63.7 km/h 67.1 km/h 98 % 33.02 mm
02:33 -11.1 °C -11.1 °C 33524.8 hPa WSW 67.9 km/h 67.9 km/h 98 % 20.32 mm
02:38 -11 °C -11.1 °C 33524.8 hPa WSW 49.7 km/h 67.9 km/h 98 % 12.7 mm
02:40 -11 °C -11.1 °C 33524.8 hPa WSW 31.4 km/h 67.9 km/h 98 % 12.7 mm
02:45 -11 °C -11.1 °C 33490.9 hPa WSW 66 km/h 66 km/h 98 % 33.02 mm
02:47 -11 °C -11.1 °C 33490.9 hPa WSW 43 km/h 68.9 km/h 98 % 33.02 mm
02:48 -11 °C -11.1 °C 33490.9 hPa WSW 39.9 km/h 68.9 km/h 98 % 38.1 mm
02:53 -10.9 °C -10.6 °C 33490.9 hPa WSW 45.9 km/h 71.8 km/h 98 % 63.5 mm
02:57 -10.9 °C -10.6 °C 33490.9 hPa WSW 46.8 km/h 71.8 km/h 98 % 76.2 mm
03:03 -11 °C -11.1 °C 33490.9 hPa West 45.1 km/h 57.9 km/h 98 % 96.52 mm
03:05 -11 °C -11.1 °C 33490.9 hPa WSW 45.9 km/h 57.9 km/h 98 % 96.52 mm
03:10 -10.9 °C -10.6 °C 33490.9 hPa West 67.9 km/h 96.9 km/h 98 % 96.52 mm
03:12 -10.8 °C -10.6 °C 33490.9 hPa West 52 km/h 102 km/h 98 % 104.14 mm
03:16 -10.8 °C -10.6 °C 33490.9 hPa WSW 77.7 km/h 102 km/h 98 % 109.22 mm
03:21 -10.9 °C -10.6 °C 33490.9 hPa West 76.4 km/h 91.4 km/h 98 % 116.84 mm
03:23 -10.9 °C -10.6 °C 33490.9 hPa West 80 km/h 91.4 km/h 98 % 116.84 mm
03:28 -10.9 °C -11.1 °C 33490.9 hPa WNW 62 km/h 107.7 km/h 95 % 116.84 mm
03:32 -11 °C -11.7 °C 33490.9 hPa West 63.7 km/h 107.7 km/h 93 % 116.84 mm
03:37 -11.1 °C -11.7 °C 33490.9 hPa West 65 km/h 118.9 km/h 91 % 116.84 mm
03:38 -11.2 °C -11.7 °C 33490.9 hPa West 59.5 km/h 118.9 km/h 91 % 116.84 mm
03:39 -11.2 °C -11.7 °C 33490.9 hPa West 74 km/h 118.9 km/h 91 % 116.84 mm
03:44 -11.2 °C -12.2 °C 33490.9 hPa West 73.5 km/h 77.7 km/h 91 % 104.14 mm
03:48 -11.2 °C -12.2 °C 33490.9 hPa West 53.3 km/h 74 km/h 91 % 96.52 mm
03:50 -11.3 °C -12.2 °C 33490.9 hPa WSW 61.3 km/h 79.2 km/h 91 % 83.82 mm
03:55 -11.3 °C -12.2 °C 33490.9 hPa West 41.7 km/h 79.2 km/h 91 % 63.5 mm
03:56 -11.3 °C -12.2 °C 33490.9 hPa WSW 44.6 km/h 79.2 km/h 91 % 58.42 mm
04:01 -11.3 °C -12.2 °C 33558.6 hPa West 69.4 km/h 72.6 km/h 90 % 38.1 mm
04:07 -11.3 °C -12.2 °C 33558.6 hPa West 48.6 km/h 79.2 km/h 88 % 38.1 mm
04:08 -11.3 °C -12.2 °C 33558.6 hPa West 58.6 km/h 79.2 km/h 87 % 38.1 mm
04:14 -11.3 °C -12.8 °C 33490.9 hPa WSW 49.7 km/h 82.9 km/h 86 % 20.32 mm
04:15 -11.3 °C -12.8 °C 33490.9 hPa West 60.3 km/h 82.9 km/h 86 % 20.32 mm
04:20 -11.3 °C -12.8 °C 33490.9 hPa West 63.2 km/h 82.9 km/h 86 % 7.62 mm
04:25 -11.3 °C -12.8 °C 33490.9 hPa WSW 60.8 km/h 83.8 km/h 85 % 7.62 mm
04:30 -11.3 °C -12.8 °C 33524.8 hPa WSW 84.6 km/h 84.6 km/h 85 % 7.62 mm
04:31 -11.3 °C -12.8 °C 33524.8 hPa West 61.3 km/h 84.6 km/h 85 % 7.62 mm
04:36 -11.4 °C -12.8 °C 33524.8 hPa West 73.5 km/h 89 km/h 83 % 7.62 mm
04:40 -11.4 °C -12.8 °C 33524.8 hPa WSW 68.4 km/h 89 km/h 81 % 7.62 mm
04:44 -11.4 °C -13.3 °C 33524.8 hPa WSW 59.1 km/h 89 km/h 80 % 7.62 mm
04:49 -11.5 °C -13.3 °C 33524.8 hPa West 59.1 km/h 82.9 km/h 79 % 0 mm
04:51 -11.5 °C -13.3 °C 33524.8 hPa WSW 75.8 km/h 78.2 km/h 79 % 0 mm
04:56 -11.5 °C -13.3 °C 33524.8 hPa WSW 50.5 km/h 77.1 km/h 79 % 0 mm
04:59 -11.5 °C -13.3 °C 33524.8 hPa West 55.2 km/h 77.1 km/h 79 % 0 mm
05:04 -11.5 °C -13.3 °C 33524.8 hPa West 59.1 km/h 80 km/h 79 % 0 mm
05:09 -11.5 °C -13.3 °C 33524.8 hPa WSW 45.1 km/h 97.4 km/h 80 % 0 mm
05:10 -11.5 °C -13.3 °C 33524.8 hPa West 70.6 km/h 97.4 km/h 80 % 0 mm
05:15 -11.5 °C -13.3 °C 33524.8 hPa WSW 71.8 km/h 91.4 km/h 79 % 0 mm
05:20 -11.5 °C -13.3 °C 33524.8 hPa West 63.2 km/h 97.4 km/h 77 % 0 mm
05:21 -11.5 °C -13.9 °C 33524.8 hPa WSW 60.8 km/h 97.4 km/h 76 % 0 mm
05:26 -11.6 °C -13.9 °C 33453.7 hPa West 59.5 km/h 97.4 km/h 75 % 0 mm
05:28 -11.6 °C -13.9 °C 33453.7 hPa WSW 73.5 km/h 79.2 km/h 76 % 0 mm
05:33 -11.6 °C -13.9 °C 33453.7 hPa WSW 71.1 km/h 83.8 km/h 75 % 0 mm
05:38 -11.7 °C -13.9 °C 33453.7 hPa WSW 70.6 km/h 83.8 km/h 74 % 0 mm
05:40 -11.7 °C -14.4 °C 33453.7 hPa WSW 71.1 km/h 73.5 km/h 73 % 0 mm
05:45 -11.7 °C -14.4 °C 33524.8 hPa WSW 66 km/h 78.2 km/h 71 % 0 mm
05:46 -11.7 °C -14.4 °C 33524.8 hPa West 77.1 km/h 78.2 km/h 70 % 0 mm
05:51 -11.8 °C -15 °C 33524.8 hPa WSW 102 km/h 102 km/h 65 % 0 mm
05:53 -11.8 °C -15.6 °C 33524.8 hPa West 62.6 km/h 102 km/h 64 % 0 mm
05:58 -11.8 °C -15.6 °C 33490.9 hPa West 59.5 km/h 102 km/h 64 % 0 mm
05:59 -11.8 °C -15.6 °C 33490.9 hPa WSW 75.8 km/h 102 km/h 64 % 0 mm
06:01 -11.8 °C -15.6 °C 33490.9 hPa WSW 96.1 km/h 96.1 km/h 63 % 0 mm
06:04 -11.9 °C -15.6 °C 33490.9 hPa West 45.1 km/h 97.8 km/h 64 % 0 mm
06:09 -11.9 °C -15.6 °C 33490.9 hPa WSW 79.2 km/h 97.8 km/h 63 % 0 mm
06:10 -11.9 °C -15.6 °C 33490.9 hPa WSW 63.7 km/h 97.8 km/h 63 % 0 mm
06:15 -12 °C -15.6 °C 33490.9 hPa West 96.1 km/h 96.1 km/h 64 % 0 mm
06:16 -12 °C -15.6 °C 33490.9 hPa SW 57.9 km/h 96.1 km/h 64 % 0 mm
06:17 -12 °C -15.6 °C 33490.9 hPa WSW 66.6 km/h 96.1 km/h 64 % 0 mm
06:22 -12.1 °C -15.6 °C 33490.9 hPa West 68.9 km/h 96.1 km/h 65 % 0 mm
06:24 -12.1 °C -15.6 °C 33490.9 hPa West 73.5 km/h 96.1 km/h 65 % 0 mm
06:29 -12.1 °C -15.6 °C 33524.8 hPa West 74.8 km/h 88.5 km/h 65 % 0 mm
06:30 -12.1 °C -15.6 °C 33524.8 hPa West 67.9 km/h 88.5 km/h 65 % 0 mm
06:35 -12.1 °C -15.6 °C 33524.8 hPa West 36 km/h 79.2 km/h 66 % 0 mm
06:38 -12.1 °C -15 °C 33524.8 hPa WSW 39.4 km/h 79.2 km/h 68 % 0 mm
06:43 -12.7 °C -15 °C 33558.6 hPa West 61.3 km/h 82.9 km/h 72 % 0 mm
06:44 -12.8 °C -15.6 °C 33558.6 hPa SSW 39.9 km/h 82.9 km/h 71 % 0 mm
06:50 -13.1 °C -15.6 °C 33558.6 hPa West 27.2 km/h 82.9 km/h 73 % 0 mm
06:52 -13.2 °C -15.6 °C 33558.6 hPa West 51 km/h 61.3 km/h 74 % 0 mm
06:57 -13.3 °C -15.6 °C 33524.8 hPa West 37.5 km/h 60.3 km/h 76 % 0 mm
06:58 -13.3 °C -15.6 °C 33524.8 hPa WSW 58.6 km/h 60.3 km/h 76 % 0 mm
07:02 -13.4 °C -15.6 °C 33524.8 hPa West 27.7 km/h 65.5 km/h 78 % 0 mm
07:04 -13.4 °C -15.6 °C 33524.8 hPa WNW 33.6 km/h 65.5 km/h 78 % 0 mm
07:09 -13.4 °C -15 °C 33524.8 hPa North 26.7 km/h 65.5 km/h 79 % 0 mm
07:12 -13.4 °C -15 °C 33524.8 hPa West 31.9 km/h 44.6 km/h 80 % 0 mm
07:14 -13.4 °C -15 °C 33524.8 hPa West 45.9 km/h 45.9 km/h 80 % 0 mm
07:19 -13.4 °C -15 °C 33524.8 hPa West 51.5 km/h 51.5 km/h 81 % 0 mm
07:20 -13.4 °C -15 °C 33524.8 hPa West 39.9 km/h 51.5 km/h 81 % 0 mm
07:25 -13.4 °C -15 °C 33524.8 hPa WSW 43.5 km/h 56.6 km/h 81 % 0 mm
07:30 -13.4 °C -15 °C 33524.8 hPa West 28.5 km/h 56.6 km/h 82 % 0 mm
07:31 -13.4 °C -15 °C 33524.8 hPa West 33.2 km/h 56.6 km/h 82 % 0 mm
07:32 -13.4 °C -15 °C 33524.8 hPa West 26.7 km/h 56.6 km/h 82 % 0 mm
07:36 -13.4 °C -15 °C 33524.8 hPa WNW 61.3 km/h 61.3 km/h 82 % 0 mm
07:41 -13.2 °C -15 °C 33558.6 hPa WSW 53.3 km/h 81.1 km/h 78 % 0 mm
07:42 -13.2 °C -15 °C 33558.6 hPa West 63.7 km/h 81.1 km/h 78 % 0 mm
07:47 -13.1 °C -15 °C 33558.6 hPa WSW 62 km/h 81.1 km/h 77 % 0 mm
07:48 -13.1 °C -15 °C 33558.6 hPa WSW 62.6 km/h 81.1 km/h 76 % 0 mm
07:53 -13 °C -15 °C 33558.6 hPa West 45.9 km/h 83.4 km/h 76 % 0 mm
07:58 -12.9 °C -15 °C 33558.6 hPa West 59.1 km/h 83.4 km/h 76 % 0 mm
08:00 -12.9 °C -15 °C 33558.6 hPa West 51 km/h 83.4 km/h 76 % 0 mm
08:05 -12.9 °C -15 °C 33558.6 hPa West 53.9 km/h 83.8 km/h 75 % 0 mm
08:10 -12.9 °C -15.6 °C 33558.6 hPa West 60.8 km/h 85.8 km/h 71 % 0 mm
08:13 -12.8 °C -15.6 °C 33558.6 hPa WSW 77.1 km/h 85.8 km/h 70 % 0 mm
08:18 -12.8 °C -15.6 °C 33558.6 hPa West 60.3 km/h 85.8 km/h 70 % 0 mm
08:19 -12.8 °C -15.6 °C 33558.6 hPa West 67.1 km/h 84.6 km/h 70 % 0 mm
08:22 -12.8 °C -15.6 °C 33558.6 hPa WSW 46.8 km/h 84.6 km/h 70 % 0 mm
08:27 -12.9 °C -15.6 °C 33592.5 hPa West 82.4 km/h 82.4 km/h 71 % 0 mm
08:32 -12.9 °C -15.6 °C 33592.5 hPa West 32.3 km/h 82.9 km/h 68 % 0 mm
08:36 -12.9 °C -15.6 °C 33592.5 hPa West 45.1 km/h 82.9 km/h 68 % 0 mm
08:39 -12.9 °C -16.1 °C 33592.5 hPa WSW 63.2 km/h 82.9 km/h 69 % 0 mm
08:42 -13 °C -16.1 °C 33626.4 hPa West 50.5 km/h 75.3 km/h 69 % 0 mm
08:47 -13.1 °C -16.1 °C 33626.4 hPa WSW 39.9 km/h 71.8 km/h 69 % 0 mm
08:50 -13.1 °C -16.1 °C 33626.4 hPa WNW 51 km/h 83.4 km/h 69 % 0 mm
08:55 -13.1 °C -16.1 °C 33626.4 hPa West 71.1 km/h 84.6 km/h 70 % 0 mm
08:57 -13.1 °C -16.1 °C 33626.4 hPa West 70.2 km/h 84.6 km/h 69 % 0 mm
09:01 -13.1 °C -16.1 °C 33626.4 hPa West 85.8 km/h 85.8 km/h 69 % 0 mm
09:06 -13.1 °C -16.1 °C 33626.4 hPa WSW 45.1 km/h 85.8 km/h 70 % 0 mm
09:10 -13.1 °C -16.1 °C 33626.4 hPa West 59.1 km/h 86.3 km/h 70 % 0 mm
09:15 -13.1 °C -16.1 °C 33626.4 hPa West 53.9 km/h 93.7 km/h 69 % 0 mm
09:16 -13.1 °C -16.1 °C 33626.4 hPa West 31.9 km/h 93.7 km/h 69 % 0 mm
09:18 -13.1 °C -16.1 °C 33626.4 hPa West 41.7 km/h 93.7 km/h 70 % 0 mm
09:24 -13.1 °C -16.1 °C 33626.4 hPa West 57.3 km/h 84.6 km/h 69 % 0 mm
09:27 -13.1 °C -16.1 °C 33626.4 hPa West 32.3 km/h 85.1 km/h 69 % 0 mm
09:30 -13.1 °C -16.1 °C 33626.4 hPa West 45.9 km/h 85.1 km/h 69 % 0 mm
09:34 -13.1 °C -16.1 °C 33626.4 hPa West 33.6 km/h 85.1 km/h 69 % 0 mm
09:36 -13.1 °C -16.1 °C 33626.4 hPa WSW 71.8 km/h 85.1 km/h 69 % 0 mm
09:41 -13.1 °C -16.1 °C 33660.2 hPa WSW 71.1 km/h 71.8 km/h 69 % 0 mm
09:46 -13.1 °C -16.1 °C 33660.2 hPa West 59.1 km/h 71.8 km/h 69 % 0 mm
09:49 -13.1 °C -16.1 °C 33660.2 hPa WSW 67.1 km/h 83.4 km/h 69 % 0 mm
09:54 -13 °C -16.1 °C 33660.2 hPa West 63.2 km/h 90.9 km/h 69 % 0 mm
09:57 -13 °C -16.1 °C 33660.2 hPa WSW 34.8 km/h 90.9 km/h 68 % 0 mm
10:02 -13 °C -16.1 °C 33660.2 hPa West 70.2 km/h 78.7 km/h 69 % 0 mm
10:07 -12.9 °C -16.1 °C 33660.2 hPa WSW 61.3 km/h 78.7 km/h 69 % 0 mm
10:08 -12.9 °C -15.6 °C 33660.2 hPa West 72.6 km/h 78.7 km/h 70 % 0 mm
10:13 -12.9 °C -15.6 °C 33660.2 hPa West 59.5 km/h 80.5 km/h 70 % 0 mm
10:19 -12.8 °C -15.6 °C 33660.2 hPa West 63.7 km/h 80.5 km/h 70 % 0 mm
10:20 -12.8 °C -15.6 °C 33660.2 hPa West 82.9 km/h 82.9 km/h 70 % 0 mm
10:22 -12.8 °C -15.6 °C 33660.2 hPa West 62.6 km/h 82.9 km/h 70 % 0 mm
10:27 -12.8 °C -15.6 °C 33694.1 hPa West 62.6 km/h 82.9 km/h 70 % 0 mm
10:32 -12.8 °C -15.6 °C 33694.1 hPa West 83.4 km/h 83.8 km/h 70 % 0 mm
10:33 -12.8 °C -15.6 °C 33694.1 hPa WSW 76.4 km/h 83.8 km/h 70 % 0 mm
10:38 -12.7 °C -15.6 °C 33694.1 hPa West 77.1 km/h 83.8 km/h 70 % 0 mm
10:43 -12.6 °C -15.6 °C 33694.1 hPa West 58.6 km/h 84.6 km/h 68 % 0 mm
10:48 -12.6 °C -15.6 °C 33694.1 hPa West 58.6 km/h 84.6 km/h 68 % 0 mm
10:52 -12.6 °C -15.6 °C 33694.1 hPa WSW 67.9 km/h 83.8 km/h 68 % 0 mm
10:57 -12.6 °C -15.6 °C 33694.1 hPa WSW 80.5 km/h 83.8 km/h 67 % 0 mm
11:02 -12.6 °C -15.6 °C 33694.1 hPa West 77.7 km/h 80.5 km/h 68 % 0 mm
11:05 -12.6 °C -15.6 °C 33694.1 hPa WSW 52.8 km/h 89 km/h 67 % 0 mm
11:08 -12.6 °C -15.6 °C 33694.1 hPa West 51 km/h 90.9 km/h 67 % 0 mm
11:11 -12.6 °C -15.6 °C 33731.3 hPa WSW 65.5 km/h 90.9 km/h 67 % 0 mm
11:14 -12.6 °C -15.6 °C 33731.3 hPa West 62 km/h 90.9 km/h 68 % 0 mm
11:17 -12.5 °C -15.6 °C 33731.3 hPa West 73.5 km/h 83.8 km/h 68 % 0 mm
11:22 -12.5 °C -15.6 °C 33731.3 hPa West 57.9 km/h 83.8 km/h 68 % 0 mm
11:23 -12.5 °C -15.6 °C 33731.3 hPa WSW 50.5 km/h 83.8 km/h 68 % 0 mm
11:28 -12.5 °C -15.6 °C 33751.6 hPa West 45.9 km/h 72.6 km/h 69 % 0 mm
11:29 -12.5 °C -15.6 °C 33751.6 hPa WSW 42.2 km/h 72.6 km/h 68 % 0 mm
11:30 -12.5 °C -15.6 °C 33751.6 hPa WSW 39.4 km/h 72.6 km/h 68 % 0 mm
11:35 -12.5 °C -15.6 °C 33751.6 hPa West 57.9 km/h 74.8 km/h 69 % 0 mm
11:40 -12.4 °C -15.6 °C 33751.6 hPa WNW 62.6 km/h 74.8 km/h 67 % 0 mm
11:43 -12.4 °C -15.6 °C 33751.6 hPa WNW 62.6 km/h 76.4 km/h 68 % 0 mm
11:44 -12.4 °C -15.6 °C 33751.6 hPa WSW 59.5 km/h 76.4 km/h 68 % 0 mm
11:49 -12.4 °C -15.6 °C 33751.6 hPa WSW 77.7 km/h 77.7 km/h 67 % 0 mm
11:50 -12.4 °C -15.6 °C 33751.6 hPa WNW 33.2 km/h 77.7 km/h 67 % 0 mm
11:55 -12.4 °C -15.6 °C 33751.6 hPa West 68.9 km/h 84.6 km/h 66 % 0 mm
11:58 -12.4 °C -15.6 °C 33751.6 hPa WSW 60.3 km/h 87.1 km/h 65 % 0 mm
12:03 -12.4 °C -15.6 °C 33751.6 hPa WNW 62.6 km/h 95.1 km/h 66 % 0 mm
12:04 -12.4 °C -15.6 °C 33751.6 hPa West 57.3 km/h 95.1 km/h 66 % 0 mm
12:08 -12.4 °C -16.1 °C 33751.6 hPa WNW 37.5 km/h 95.1 km/h 64 % 0 mm
12:13 -12.4 °C -15.6 °C 33751.6 hPa West 46.3 km/h 83.8 km/h 66 % 0 mm
12:18 -12.4 °C -15.6 °C 33751.6 hPa West 58.6 km/h 78.7 km/h 66 % 0 mm
12:19 -12.3 °C -15.6 °C 33751.6 hPa West 41.2 km/h 78.7 km/h 67 % 0 mm
12:24 -12.4 °C -15.6 °C 33751.6 hPa WNW 33.6 km/h 73.5 km/h 67 % 0 mm
12:26 -12.4 °C -15.6 °C 33788.9 hPa West 78.7 km/h 78.7 km/h 66 % 0 mm
12:31 -12.3 °C -15.6 °C 33788.9 hPa West 66.6 km/h 82.9 km/h 65 % 0 mm
12:34 -12.3 °C -15.6 °C 33788.9 hPa WSW 80 km/h 82.9 km/h 66 % 0 mm
12:39 -12.4 °C -15.6 °C 33788.9 hPa WSW 44.1 km/h 83.4 km/h 66 % 0 mm
12:40 -12.4 °C -15.6 °C 33788.9 hPa West 79.2 km/h 83.4 km/h 66 % 0 mm
12:45 -12.4 °C -15.6 °C 33788.9 hPa SSW 67.9 km/h 79.2 km/h 66 % 0 mm
12:46 -12.4 °C -15.6 °C 33788.9 hPa West 34.1 km/h 79.2 km/h 66 % 0 mm
12:51 -12.3 °C -15.6 °C 33788.9 hPa WSW 65.5 km/h 74.8 km/h 66 % 0 mm
12:56 -12.3 °C -15.6 °C 33788.9 hPa West 28.5 km/h 74.8 km/h 66 % 0 mm
12:57 -12.3 °C -15.6 °C 33788.9 hPa West 28.5 km/h 74.8 km/h 66 % 0 mm
13:02 -12.3 °C -15 °C 33788.9 hPa West 54.4 km/h 73.5 km/h 68 % 0 mm
13:06 -12.3 °C -15.6 °C 33788.9 hPa West 66 km/h 66 km/h 68 % 0 mm
13:10 -12.3 °C -15.6 °C 33788.9 hPa West 46.8 km/h 71.8 km/h 69 % 0 mm
13:12 -12.3 °C -15 °C 33788.9 hPa West 59.5 km/h 71.8 km/h 70 % 0 mm
13:17 -12.3 °C -15 °C 33788.9 hPa WSW 49.2 km/h 83.4 km/h 70 % 0 mm
13:20 -12.4 °C -15 °C 33788.9 hPa WSW 46.8 km/h 83.4 km/h 70 % 0 mm
13:24 -12.4 °C -15.6 °C 33788.9 hPa WSW 59.1 km/h 79.2 km/h 69 % 0 mm
13:29 -12.4 °C -15 °C 33822.8 hPa West 43.5 km/h 74 km/h 71 % 0 mm
13:31 -12.4 °C -15 °C 33822.8 hPa WSW 45.1 km/h 68.4 km/h 71 % 0 mm
13:36 -12.4 °C -15 °C 33822.8 hPa WNW 53.9 km/h 68.9 km/h 70 % 0 mm
13:41 -12.4 °C -15 °C 33788.9 hPa West 63.2 km/h 70.2 km/h 70 % 0 mm
13:43 -12.4 °C -15 °C 33788.9 hPa West 68.4 km/h 70.2 km/h 70 % 0 mm
13:48 -12.3 °C -15 °C 33788.9 hPa West 45.9 km/h 71.8 km/h 71 % 0 mm
13:49 -12.3 °C -15 °C 33788.9 hPa WNW 63.7 km/h 71.8 km/h 71 % 0 mm
13:53 -12.3 °C -15 °C 33788.9 hPa West 58.6 km/h 71.8 km/h 71 % 0 mm
13:55 -12.3 °C -15 °C 33788.9 hPa West 45.9 km/h 71.1 km/h 71 % 0 mm
14:00 -12.3 °C -15 °C 33856.6 hPa West 55.7 km/h 71.8 km/h 70 % 0 mm
14:04 -12.2 °C -15 °C 33856.6 hPa WSW 41.7 km/h 84.6 km/h 71 % 0 mm
14:09 -12.2 °C -15 °C 33856.6 hPa WSW 53.3 km/h 84.6 km/h 71 % 0 mm
14:14 -12.2 °C -15 °C 33822.8 hPa West 56.6 km/h 79.2 km/h 71 % 0 mm
14:17 -12.2 °C -15 °C 33822.8 hPa West 52 km/h 79.2 km/h 71 % 0 mm
14:19 -12.2 °C -14.4 °C 33822.8 hPa WSW 60.3 km/h 79.2 km/h 72 % 0 mm
14:24 -12.2 °C -14.4 °C 33822.8 hPa WSW 53.3 km/h 80 km/h 72 % 0 mm
14:29 -12.2 °C -15 °C 33822.8 hPa West 70.6 km/h 80 km/h 71 % 0 mm
14:31 -12.2 °C -15 °C 33822.8 hPa West 38.3 km/h 80 km/h 71 % 0 mm
14:32 -12.1 °C -14.4 °C 33822.8 hPa WSW 51 km/h 80 km/h 72 % 0 mm
14:37 -12.1 °C -14.4 °C 33822.8 hPa West 66 km/h 78.2 km/h 72 % 0 mm
14:42 -12.2 °C -15 °C 33822.8 hPa West 61.3 km/h 69.4 km/h 71 % 0 mm
14:45 -12.2 °C -15 °C 33822.8 hPa West 58.6 km/h 78.7 km/h 71 % 0 mm
14:46 -12.2 °C -15 °C 33822.8 hPa West 48.6 km/h 78.7 km/h 71 % 0 mm
14:50 -12.1 °C -14.4 °C 33822.8 hPa West 53.9 km/h 78.7 km/h 72 % 0 mm
14:55 -12.1 °C -14.4 °C 33822.8 hPa West 51 km/h 86.3 km/h 71 % 0 mm
15:00 -12.2 °C -14.4 °C 33822.8 hPa West 70.2 km/h 86.3 km/h 72 % 0 mm
15:01 -12.2 °C -14.4 °C 33822.8 hPa West 39.9 km/h 86.3 km/h 72 % 0 mm
15:02 -12.2 °C -14.4 °C 33822.8 hPa West 62 km/h 86.3 km/h 72 % 0 mm
15:07 -12.2 °C -14.4 °C 33822.8 hPa WNW 31.4 km/h 78.2 km/h 72 % 0 mm
15:09 -12.2 °C -15 °C 33822.8 hPa West 58.6 km/h 90.9 km/h 71 % 0 mm
15:14 -12.2 °C -14.4 °C 33856.6 hPa WSW 57.3 km/h 90.9 km/h 72 % 0 mm
15:15 -12.2 °C -14.4 °C 33856.6 hPa West 68.9 km/h 90.9 km/h 73 % 0 mm
15:17 -12.2 °C -14.4 °C 33856.6 hPa WSW 58.6 km/h 90.9 km/h 72 % 0 mm
15:20 -12.2 °C -14.4 °C 33856.6 hPa West 75.3 km/h 85.1 km/h 72 % 0 mm
15:25 -12.2 °C -14.4 °C 33856.6 hPa West 60.3 km/h 85.1 km/h 72 % 0 mm
15:27 -12.2 °C -14.4 °C 33890.5 hPa West 39.4 km/h 85.1 km/h 72 % 0 mm
15:32 -12.2 °C -14.4 °C 33890.5 hPa WNW 60.8 km/h 79.2 km/h 72 % 0 mm
15:35 -12.2 °C -14.4 °C 33890.5 hPa WSW 60.8 km/h 79.2 km/h 72 % 0 mm
15:38 -12.2 °C -14.4 °C 33890.5 hPa WSW 52.8 km/h 73.5 km/h 72 % 0 mm
15:40 -12.2 °C -14.4 °C 33890.5 hPa West 56.6 km/h 67.9 km/h 73 % 0 mm
15:45 -12.2 °C -14.4 °C 33890.5 hPa West 46.3 km/h 67.9 km/h 73 % 0 mm
15:46 -12.2 °C -14.4 °C 33890.5 hPa West 42.2 km/h 67.9 km/h 73 % 0 mm
15:51 -12.2 °C -14.4 °C 33890.5 hPa WSW 57.9 km/h 74.8 km/h 73 % 0 mm
15:57 -12.2 °C -14.4 °C 33856.6 hPa West 62.6 km/h 74.8 km/h 72 % 0 mm
16:00 -12.2 °C -14.4 °C 33856.6 hPa SW 70.6 km/h 72.6 km/h 73 % 0 mm
16:04 -12.2 °C -14.4 °C 33856.6 hPa West 49.7 km/h 71.8 km/h 73 % 0 mm
16:09 -12.3 °C -14.4 °C 33856.6 hPa West 45.1 km/h 76.4 km/h 74 % 0 mm
16:13 -12.3 °C -14.4 °C 33890.5 hPa WSW 44.1 km/h 77.1 km/h 74 % 0 mm
16:18 -12.4 °C -14.4 °C 33890.5 hPa West 65 km/h 77.1 km/h 74 % 0 mm
16:20 -12.4 °C -14.4 °C 33890.5 hPa WSW 52.8 km/h 77.1 km/h 74 % 0 mm
16:24 -12.4 °C -14.4 °C 33890.5 hPa WSW 32.3 km/h 74.8 km/h 74 % 0 mm
16:29 -12.4 °C -14.4 °C 33890.5 hPa WSW 49.7 km/h 72.6 km/h 74 % 0 mm
16:32 -12.4 °C -14.4 °C 33890.5 hPa West 32.3 km/h 72.6 km/h 74 % 0 mm
16:37 -12.4 °C -14.4 °C 33890.5 hPa WSW 51 km/h 62 km/h 74 % 0 mm
16:41 -12.4 °C -14.4 °C 33890.5 hPa WSW 34.1 km/h 57.9 km/h 74 % 0 mm
16:42 -12.4 °C -14.4 °C 33890.5 hPa WSW 48.1 km/h 57.9 km/h 74 % 0 mm
16:46 -12.4 °C -14.4 °C 33890.5 hPa WSW 58.6 km/h 65.5 km/h 74 % 0 mm
16:51 -12.4 °C -14.4 °C 33890.5 hPa WSW 45.1 km/h 65.5 km/h 75 % 0 mm
16:53 -12.4 °C -14.4 °C 33890.5 hPa WSW 39.4 km/h 65.5 km/h 74 % 0 mm
16:54 -12.4 °C -14.4 °C 33890.5 hPa WSW 34.1 km/h 60.8 km/h 75 % 0 mm
16:59 -12.4 °C -14.4 °C 33890.5 hPa WSW 57.3 km/h 63.7 km/h 75 % 0 mm
17:01 -12.4 °C -14.4 °C 33890.5 hPa WSW 45.9 km/h 63.7 km/h 75 % 0 mm
17:07 -12.4 °C -14.4 °C 33890.5 hPa West 36.5 km/h 65.5 km/h 75 % 0 mm
17:09 -12.4 °C -14.4 °C 33890.5 hPa West 46.3 km/h 65.5 km/h 75 % 0 mm
17:13 -12.5 °C -14.4 °C 33890.5 hPa WSW 51.5 km/h 65.5 km/h 75 % 0 mm
17:18 -12.5 °C -14.4 °C 33890.5 hPa WSW 51 km/h 69.4 km/h 75 % 0 mm
17:23 -12.6 °C -14.4 °C 33890.5 hPa West 34.1 km/h 69.4 km/h 75 % 0 mm
17:26 -12.6 °C -14.4 °C 33890.5 hPa West 45.9 km/h 63.7 km/h 75 % 0 mm
17:32 -12.6 °C -14.4 °C 33890.5 hPa WSW 44.6 km/h 63.7 km/h 75 % 0 mm
17:37 -12.6 °C -14.4 °C 33890.5 hPa WSW 59.5 km/h 62 km/h 75 % 0 mm
17:42 -12.6 °C -14.4 °C 33890.5 hPa WSW 33.6 km/h 61.3 km/h 75 % 0 mm
17:47 -12.7 °C -14.4 °C 33890.5 hPa WSW 44.6 km/h 61.3 km/h 75 % 0 mm
17:48 -12.7 °C -14.4 °C 33890.5 hPa WSW 34.1 km/h 61.3 km/h 75 % 0 mm
17:52 -12.7 °C -14.4 °C 33890.5 hPa WSW 39.9 km/h 61.3 km/h 75 % 0 mm
17:57 -12.7 °C -15 °C 33890.5 hPa WSW 53.3 km/h 60.8 km/h 76 % 0 mm
17:58 -12.7 °C -15 °C 33890.5 hPa WSW 50.5 km/h 60.8 km/h 76 % 0 mm
18:03 -12.7 °C -15 °C 33890.5 hPa West 48.1 km/h 65.5 km/h 75 % 0 mm
18:08 -12.7 °C -15 °C 33890.5 hPa WSW 39.9 km/h 65.5 km/h 75 % 0 mm
18:12 -12.7 °C -15 °C 33890.5 hPa WSW 43.5 km/h 63.2 km/h 75 % 0 mm
18:17 -12.7 °C -15 °C 33890.5 hPa WSW 27.7 km/h 63.2 km/h 75 % 0 mm
18:22 -12.7 °C -15 °C 33890.5 hPa WSW 45.9 km/h 59.1 km/h 75 % 0 mm
18:26 -12.8 °C -15 °C 33924.3 hPa WSW 46.8 km/h 58.6 km/h 75 % 0 mm
18:31 -12.8 °C -15 °C 33924.3 hPa WSW 44.6 km/h 63.2 km/h 74 % 0 mm
18:32 -12.8 °C -15 °C 33924.3 hPa WSW 41.2 km/h 63.2 km/h 74 % 0 mm
18:38 -12.7 °C -15 °C 33924.3 hPa West 51 km/h 63.2 km/h 74 % 0 mm
18:44 -12.8 °C -15 °C 33890.5 hPa WSW 26.7 km/h 63.2 km/h 75 % 0 mm
18:46 -12.8 °C -15 °C 33890.5 hPa West 37.5 km/h 63.2 km/h 75 % 0 mm
18:51 -12.9 °C -15 °C 33890.5 hPa WSW 57.3 km/h 65 km/h 75 % 0 mm
18:53 -12.9 °C -15 °C 33890.5 hPa WSW 59.5 km/h 65 km/h 75 % 0 mm
18:54 -12.9 °C -15 °C 33890.5 hPa WSW 52.8 km/h 65 km/h 75 % 0 mm
19:01 -12.8 °C -15 °C 33890.5 hPa WSW 41.2 km/h 62.6 km/h 75 % 0 mm
19:06 -12.8 °C -15 °C 33890.5 hPa West 60.8 km/h 68.9 km/h 74 % 0 mm
19:09 -12.8 °C -15 °C 33890.5 hPa WSW 39.4 km/h 68.9 km/h 75 % 0 mm
19:14 -12.8 °C -15 °C 33890.5 hPa West 39.9 km/h 68.9 km/h 75 % 0 mm
19:19 -12.8 °C -15 °C 33890.5 hPa WSW 51.5 km/h 62 km/h 74 % 0 mm
19:22 -12.8 °C -15 °C 33890.5 hPa West 44.6 km/h 63.7 km/h 74 % 0 mm
19:27 -12.8 °C -15 °C 33890.5 hPa West 45.1 km/h 63.7 km/h 74 % 0 mm
19:29 -12.8 °C -15 °C 33890.5 hPa WSW 36 km/h 63.7 km/h 74 % 0 mm
19:32 -12.8 °C -15 °C 33890.5 hPa WSW 49.7 km/h 56.6 km/h 74 % 0 mm
19:37 -12.8 °C -15 °C 33890.5 hPa West 45.1 km/h 57.3 km/h 75 % 0 mm
19:40 -12.7 °C -15 °C 33890.5 hPa WSW 45.1 km/h 57.3 km/h 75 % 0 mm
19:45 -12.7 °C -14.4 °C 33924.3 hPa WSW 62.6 km/h 70.6 km/h 75 % 0 mm
19:48 -12.7 °C -14.4 °C 33924.3 hPa WSW 27.7 km/h 70.6 km/h 75 % 0 mm
19:54 -12.7 °C -14.4 °C 33924.3 hPa WSW 59.1 km/h 70.6 km/h 75 % 0 mm
19:57 -12.6 °C -14.4 °C 33924.3 hPa WSW 36.5 km/h 66.6 km/h 75 % 0 mm
20:02 -12.7 °C -14.4 °C 33924.3 hPa WSW 44.1 km/h 66.6 km/h 75 % 0 mm
20:04 -12.7 °C -14.4 °C 33924.3 hPa West 57.9 km/h 66 km/h 75 % 0 mm
20:09 -12.7 °C -14.4 °C 33924.3 hPa West 33.6 km/h 59.5 km/h 75 % 0 mm
20:13 -12.7 °C -14.4 °C 33924.3 hPa West 48.1 km/h 59.5 km/h 75 % 0 mm
20:19 -12.7 °C -15 °C 33924.3 hPa WSW 32.3 km/h 60.3 km/h 76 % 0 mm
20:20 -12.7 °C -15 °C 33924.3 hPa WSW 33.6 km/h 60.3 km/h 76 % 0 mm
20:25 -12.7 °C -15 °C 33924.3 hPa West 31.9 km/h 55.2 km/h 76 % 0 mm
20:28 -12.7 °C -15 °C 33924.3 hPa West 45.9 km/h 46.3 km/h 76 % 0 mm
20:29 -12.7 °C -15 °C 33924.3 hPa West 70.6 km/h 70.6 km/h 76 % 0 mm
20:33 -12.7 °C -14.4 °C 33924.3 hPa WSW 49.7 km/h 71.1 km/h 76 % 0 mm
20:38 -12.7 °C -14.4 °C 33924.3 hPa WSW 27.7 km/h 71.1 km/h 76 % 0 mm
20:40 -12.7 °C -15 °C 33924.3 hPa WSW 33.2 km/h 66 km/h 76 % 0 mm
20:41 -12.7 °C -15 °C 33924.3 hPa WSW 28.5 km/h 66 km/h 76 % 0 mm
20:46 -12.7 °C -15 °C 33924.3 hPa WSW 34.1 km/h 66 km/h 76 % 0 mm
20:51 -12.7 °C -15 °C 33924.3 hPa West 33.6 km/h 60.3 km/h 76 % 0 mm
20:52 -12.7 °C -14.4 °C 33924.3 hPa West 50.5 km/h 60.3 km/h 76 % 0 mm
20:57 -12.7 °C -15 °C 33924.3 hPa West 33.6 km/h 60.3 km/h 76 % 0 mm
20:58 -12.7 °C -15 °C 33924.3 hPa WSW 57.9 km/h 70.2 km/h 76 % 0 mm
20:59 -12.7 °C -15 °C 33924.3 hPa West 37.5 km/h 70.2 km/h 76 % 0 mm
21:05 -12.7 °C -14.4 °C 33924.3 hPa WSW 55.7 km/h 70.2 km/h 76 % 0 mm
21:10 -12.7 °C -14.4 °C 33924.3 hPa West 28.5 km/h 59.1 km/h 76 % 0 mm
21:15 -12.7 °C -14.4 °C 33924.3 hPa WSW 28.5 km/h 66 km/h 76 % 0 mm
21:20 -12.7 °C -14.4 °C 33924.3 hPa WSW 39.9 km/h 66 km/h 76 % 0 mm
21:25 -12.7 °C -15 °C 33924.3 hPa WSW 41.7 km/h 59.1 km/h 76 % 0 mm
21:28 -12.7 °C -15 °C 33924.3 hPa West 31.4 km/h 59.1 km/h 76 % 0 mm
21:33 -12.7 °C -14.4 °C 33924.3 hPa West 49.7 km/h 59.1 km/h 77 % 0 mm
21:34 -12.7 °C -14.4 °C 33924.3 hPa WSW 45.1 km/h 59.1 km/h 77 % 0 mm
21:38 -12.7 °C -14.4 °C 33924.3 hPa West 39.4 km/h 51.5 km/h 77 % 0 mm
21:44 -12.7 °C -14.4 °C 33924.3 hPa WSW 25.4 km/h 44.6 km/h 77 % 0 mm
21:48 -12.7 °C -15 °C 33924.3 hPa West 34.1 km/h 60.3 km/h 76 % 0 mm
21:53 -12.7 °C -15 °C 33924.3 hPa West 33.2 km/h 60.3 km/h 76 % 0 mm
21:54 -12.7 °C -14.4 °C 33924.3 hPa West 39.9 km/h 60.3 km/h 76 % 0 mm
21:55 -12.7 °C -14.4 °C 33924.3 hPa West 39.9 km/h 60.3 km/h 76 % 0 mm
22:00 -12.7 °C -14.4 °C 33924.3 hPa WSW 34.1 km/h 59.5 km/h 76 % 0 mm
22:01 -12.7 °C -14.4 °C 33924.3 hPa West 33.6 km/h 59.5 km/h 76 % 0 mm
22:02 -12.7 °C -14.4 °C 33924.3 hPa West 39.4 km/h 59.5 km/h 76 % 0 mm
22:07 -12.7 °C -14.4 °C 33924.3 hPa West 50.5 km/h 58.6 km/h 75 % 0 mm
22:08 -12.7 °C -14.4 °C 33924.3 hPa WSW 38.3 km/h 58.6 km/h 75 % 0 mm
22:13 -12.7 °C -14.4 °C 33924.3 hPa WSW 33.2 km/h 58.6 km/h 75 % 0 mm
22:17 -12.7 °C -15 °C 33924.3 hPa WSW 33.2 km/h 48.6 km/h 75 % 0 mm
22:22 -12.8 °C -15 °C 33924.3 hPa WSW 38.3 km/h 43.5 km/h 76 % 0 mm
22:23 -12.8 °C -15 °C 33924.3 hPa WSW 28.5 km/h 43.5 km/h 76 % 0 mm
22:28 -12.8 °C -15 °C 33924.3 hPa West 30.7 km/h 43.5 km/h 76 % 0 mm
22:33 -12.9 °C -14.4 °C 33924.3 hPa West 32.3 km/h 44.6 km/h 77 % 0 mm
22:37 -12.9 °C -14.4 °C 33924.3 hPa West 25.4 km/h 44.6 km/h 77 % 0 mm
22:42 -12.9 °C -15 °C 33924.3 hPa WSW 22 km/h 44.1 km/h 77 % 0 mm
22:44 -12.9 °C -15 °C 33924.3 hPa WSW 39.4 km/h 44.1 km/h 77 % 0 mm
22:49 -12.9 °C -15 °C 33924.3 hPa West 22.5 km/h 46.8 km/h 77 % 0 mm
22:51 -12.9 °C -15 °C 33924.3 hPa West 32.3 km/h 46.8 km/h 77 % 0 mm
22:57 -13 °C -15 °C 33924.3 hPa West 27.7 km/h 46.8 km/h 78 % 0 mm
23:02 -13.1 °C -15 °C 33924.3 hPa WSW 17.9 km/h 39.9 km/h 78 % 0 mm
23:07 -13.1 °C -14.4 °C 33924.3 hPa West 33.6 km/h 36 km/h 79 % 0 mm
23:10 -13.1 °C -14.4 °C 33924.3 hPa West 27.2 km/h 41.2 km/h 79 % 0 mm
23:14 -13 °C -14.4 °C 33924.3 hPa WSW 34.1 km/h 51 km/h 80 % 0 mm
23:16 -13 °C -14.4 °C 33924.3 hPa West 31.9 km/h 51 km/h 80 % 0 mm
23:22 -13 °C -14.4 °C 33924.3 hPa West 19.6 km/h 45.5 km/h 80 % 0 mm
23:23 -13 °C -14.4 °C 33924.3 hPa West 42.2 km/h 45.5 km/h 80 % 0 mm
23:25 -13 °C -14.4 °C 33924.3 hPa West 25.4 km/h 51.5 km/h 80 % 0 mm
23:30 -13.1 °C -14.4 °C 33924.3 hPa West 32.3 km/h 51.5 km/h 81 % 0 mm
23:31 -13.1 °C -14.4 °C 33924.3 hPa WSW 26.2 km/h 51.5 km/h 81 % 0 mm
23:36 -13.1 °C -14.4 °C 33924.3 hPa West 28.5 km/h 44.1 km/h 81 % 0 mm
23:41 -13.1 °C -14.4 °C 33924.3 hPa West 33.2 km/h 44.1 km/h 81 % 0 mm
23:46 -13.1 °C -14.4 °C 33924.3 hPa West 20.3 km/h 39.4 km/h 81 % 0 mm
23:51 -13.2 °C -14.4 °C 33924.3 hPa WSW 31.4 km/h 34.1 km/h 82 % 0 mm
23:54 -13.1 °C -14.4 °C 33924.3 hPa West 20.9 km/h 36.5 km/h 82 % 0 mm
23:57 -13.2 °C -14.4 °C 33890.5 hPa WSW 27.7 km/h 36.5 km/h 82 % 0 mm
Le Gheer Warneton
Courtoisie de Weather Underground - 2.75 mb

Mise a jour : 21/02/2018 12:04:11
Généré par Cumulus 1.9.4 (1099)